www.pogodaiklimat.ru

АРХИВ ПОГОДЫ в Далласе

Время (UTC), дата Ветер
(напр.,м/с)
 
Видим.   Явления Облачность Т
(С)
Тd
(С)
f
(%)
Тe
(С)
Тes
(С)
Комфортность

P
(гПа)

Po
(гПа)
Тmin
(С)
Tmax
(С)
R
(мм)
SD
(см)
00:53 16.09 В  16 км  слабая морось, дымка  8/8 м
[верхняя средняя] 
0.0  0.0  100  -5  -5    1014.1  995.1  +24.4  +28.9     
01:53 16.09 В  16 км    8/8 м
[верхняя средняя] 
0.0  0.0  100  -5  -5    1014.4  995.4  +24.4  +28.9     
02:53 16.09 СВ  16 км    8/8 м
[верхняя средняя] 
0.0  0.0  100  -5  -5    1014.6  995.7  +24.4  +28.9     
03:53 16.09 СВ  16 км    8/8 м
[верхняя средняя] 
0.0  0.0  100  -5  -5    1014.3  995.4  +24.4  +28.9     
04:53 16.09 С  16 км    8/8 м
[верхняя средняя] 
0.0  0.0  100  -5  -5    1014.0  995.1  +24.4  +28.9     
05:53 16.09 штиль  16 км    8/8 м
[верхняя средняя] 
0.0  0.0  100  -1  -1    1013.6  994.7  +23.3  +25.0     
06:53 16.09 С  16 км    8/8 м
[верхняя средняя] 
0.0  0.0  100  -5  -5    1013.4  994.7  +23.3  +25.0     
07:53 16.09 штиль  16 км    8/8 м
[верхняя средняя] 
0.0  0.0  100  -1  -1    1013.1  994.4  +23.3  +25.0     
08:53 16.09 СВ  16 км    8/8 м
[верхняя средняя] 
0.0  0.0  100  -3  -3    1012.8  994.1  +23.3  +25.0     
09:53 16.09 штиль  16 км    8/8 м
[верхняя средняя] 
0.0  0.0  100  -1  -1    1013.2  994.4  +23.3  +25.0     
10:53 16.09 штиль  16 км    8/8 м
[верхняя средняя] 
0.0  0.0  100  -1  -1    1013.7  994.7  +23.3  +25.0     
11:53 16.09 штиль  16 км    8/8 м
[верхняя средняя] 
0.0  0.0  100  -1  -1    1014.2  995.4  +23.3  +31.7  0.8   
12:53 16.09 В  16 км    8/8 м
[верхняя средняя] 
0.0  0.0  100  -5  -4    1014.6  995.7  +23.3  +31.7  0.8   
13:53 16.09 Ю  16 км    8/8 м
[верхняя средняя] 
0.0  0.0  100  -5  -4    1015.0  996.1  +23.3  +31.7  0.8   
14:53 16.09 штиль  16 км    8/8 м
[верхняя средняя] 
0.0  0.0  100  -1  0    1015.1  996.1  +23.3  +31.7  0.8   
15:53 16.09 нст  16 км    8/8 м
[верхняя средняя] 
0.0  0.0  100  -3  -1    1014.9  996.1  +23.3  +31.7  0.8   
16:53 16.09 В  16 км    8/8 м
[верхняя средняя] 
0.0  0.0  100  -5  -2    1014.2  995.4  +23.3  +31.7  0.8   
17:53 16.09 В  16 км    8/8 м
[верхняя средняя] 
0.0  0.0  100  -5  -3    1013.2    +30.0  +33.3  0.8   
18:53 16.09 нст  16 км    8/5 м
[верхняя средняя] 
0.0  0.0  100  -3  +3    1012.4    +30.0  +33.3  0.8   
19:53 16.09 нст  16 км    8/5 м
[верхняя средняя] 
0.0  0.0  100  -5  -1    1011.7    +30.0  +33.3  0.8   
20:53 16.09 СВ  16 км    8/5 м
[верхняя средняя] 
0.0  0.0  100  -5  -3    1011.2    +30.0  +33.3  0.8   
21:25 16.09 СВ  16 км    8/5 м
[верхняя средняя] 
0.0  0.0  100  -5  -3    1011.2  992.4  +30.0  +33.3  0.8   
22:53 16.09 В  16 км    8/5 м
[верхняя средняя] 
0.0  0.0  100  -5  -4    1011.4  992.4  +30.0  +33.3  0.8   
23:53 16.09 В  16 км    8/5 м
[верхняя средняя] 
0.0  0.0  100  -5  -5    1011.9  993.1  +27.2  +30.0  0.8   
00:53 17.09 В  16 км    8/5 м
[верхняя средняя] 
0.0  0.0  100  -3  -3    1012.4  993.4  +27.2  +30.0  0.8   
01:53 17.09 ЮВ  16 км    8/5 м
[верхняя средняя] 
0.0  0.0  100  -3  -3    1013.0  994.1  +27.2  +30.0  0.8   
02:53 17.09 штиль  16 км    8/5 м
[верхняя средняя] 
0.0  0.0  100  -1  -1    1013.0  994.1  +27.2  +30.0  0.8   
03:53 17.09 штиль  16 км    8/5 м
[верхняя средняя] 
0.0  0.0  100  -1  -1    1012.6  993.7  +27.2  +30.0  0.8   
04:53 17.09 штиль  16 км    8/5 м
[верхняя средняя] 
0.0  0.0  100  -1  -1    1012.4  993.4  +27.2  +30.0  0.8   
05:53 17.09 штиль  16 км    8/5 м
[верхняя средняя] 
0.0  0.0  100  -1  -1    1012.3  993.4  +23.9  +27.8  0.8   
06:53 17.09 ЮЗ  16 км    8/5 м
[верхняя средняя] 
0.0  0.0  100  -3  -3    1012.5  993.7  +23.9  +27.8  0.8   
07:53 17.09 ЮЗ  16 км    8/5 м
[верхняя средняя] 
0.0  0.0  100  -3  -3    1012.4  993.7  +23.9  +27.8  0.8   
08:53 17.09 штиль  16 км    8/5 м
[верхняя средняя] 
0.0  0.0  100  -1  -1    1012.4  993.7  +23.9  +27.8  0.8   
09:53 17.09 ЮВ  16 км    8/5 м
[верхняя средняя] 
0.0  0.0  100  -3  -3    1012.6  993.7  +23.9  +27.8  0.8   
10:53 17.09 ЮЗ  14 км    8/5 м
[верхняя средняя] 
0.0  0.0  100  -3  -3    1013.1  994.4  +23.9  +27.8  0.8   
11:53 17.09 ЮЗ  11 км    8/5 м
[верхняя средняя] 
0.0  0.0  100  -5  -5    1013.7  994.7  +24.4  +32.8  0.8   
12:53 17.09 ЮЗ  16 км    5/5 м
[верхняя средняя] 
0.0  0.0  100  -3  -3    1014.2  995.4  +24.4  +32.8  0.8   
13:53 17.09 ЮЗ  16 км    5/5 м
[верхняя средняя] 
+28.3  +21.7  67  +36  +37  очень
душно 
1014.4  995.7  +24.4  +32.8  0.8   
14:53 17.09 нст  16 км    5/5 м
[верхняя средняя] 
+31.0  +21.0  55  +38  +41  очень
душно 
1014.9  996.1  +24.4  +32.8  0.8   
15:53 17.09 ЮЗ  16 км    5/5 м
[верхняя средняя] 
+32.0  +19.0  46  +37  +41  очень
душно 
1015.0  996.1  +24.4  +32.8  0.8   
16:53 17.09 нст  16 км    5/5 м
[верхняя средняя] 
+32.2  +20.0  49  +39  +46  очень
душно 
1014.5  995.7  +24.4  +32.8  0.8   
17:53 17.09 Ю  16 км    5/5 м
[верхняя средняя] 
+32.0  +21.0  52  +39  +46  очень
душно 
1013.8  995.1  +32.2  +33.9  0.8   
18:53 17.09 ЮЗ  3
{10} 
16 км    5/5 м
[верхняя] 
+33.0  +20.0  46  +39  +46  очень
душно 
1012.9  994.1  +32.2  +33.9  0.8   
19:53 17.09 нст  16 км    5/5 м
[верхняя] 
+33.3  +19.4  44  +39  +44  очень
душно 
1012.4  993.7  +32.2  +33.9  0.8   
20:53 17.09 Ю  16 км    5/5 м
[верхняя] 
+33.0  +19.0  44  +38  +41  очень
душно 
1011.9  993.1  +32.2  +33.9  0.8   
21:53 17.09 ЮЗ  16 км    5/5 м
[верхняя] 
+33.0  +20.0  46  +39  +41  очень
душно 
1011.6  992.8  +32.2  +33.9  0.8   
22:53 17.09 ЮЗ  16 км    5/2 м
[верхняя] 
+32.2  +18.9  45  +37  +38  очень
душно 
1011.7  992.8  +32.2  +33.9  0.8   
23:53 17.09 ЮЗ  16 км    5/2 м
[верхняя] 
+31.0  +19.0  49  +36  +37  очень
душно 
1011.7  992.8  +26.7  +32.2  0.8   

 

Местоположение метеостанции Dallas / Fort Worth International Airport: широта 32.8974 долгота -97.0220 высота над уровнем моря 165 м.

В архиве по умолчанию представлена погода в Далласе за последние 1-2 суток. Обновление информации о фактической погоде в базе происходит ежечасно! Архивные данные за месяц целиком и за предыдущие месяцы Вы можете получить, выбрав интересующий диапазон дат из раскрывающегося списка и нажав кнопку "Ввод!".

Внимание! Архив погоды МЕТАР в базе сайта в настоящее время начинается c 1 января 2013 г. Нет смысла пытаться выбрать более раннюю дату.

Внимание! Время в таблицах - всемирное. Для получения местного времени необходимо прибавить поправку, которая в Далласе равна -6 ч.

Ветер - указаны скорость ветра в м/с и направление, откуда дует ветер: С - северный, СВ - северо-восточный, В - восточный, ЮВ - юго-восточный, Ю - южный, ЮЗ - юго-западный, З - западный, СЗ - северо-западный.
Видимость - горизонтальная дальность видимости в метрах или километрах. При видимости от 1 до 10 км при отсутствии осадков обычно наблюдается дымка, при ухудшении видимости до 1 км и менее - туман. В сухую погоду видимость может ухудшаться дымом, пылью или мглою.
Атмосферные явления - указаны явления, наблюдавшиеся в указанный момент времени.
Облачность - указаны через наклонную черту верхняя и нижняя облачность в баллах и высота нижней границы облаков в метрах. Внимание: облачность, как и прочие метеорологические величины в США измеряются автоматическими метеостанциями. Указанные значения в баллах носят условный характер и показывают процент времени, в течение которого, в среднем, лазерный луч высотомера отражался от облаков обратно.
T - Температура воздуха - температура, измеренная на высоте 2 м над землей.
Td - Температура точки росы - температура, при понижении до которой содержащийся в воздухе водяной пар достигнет насыщения.
f - Относительная влажность воздуха - влажноcть воздуха, измеренная на высоте 2 м над землей.
Te - Эффективная температура - температура, которую ощущает одетый по сезону человек в тени. Характеристика душности погоды. При расчете учитывается влияние влажности воздуха и скорости ветра на теплоощущения человека.
Tes - Эффективная температура на солнце - температура, которую ощущает человек, с поправкой на солнечный нагрев. Характеристика знойности погоды. Зависит от высоты солнца над горизонтом, облачности и скорости ветра. Ночью, в пасмурную погоду, а также при ветре 12 м/с и более поправка равна нулю.
P - Атмосферное давление - приведенное к уровню моря атмосферное давление.
Po - Атмосферное давление - измеренное на уровне метеостанции атмосферное давление.
Tmin - Минимальная температура - минимум температуры воздуха на высоте 2 м над землей.
Tmax - Максимальная температура - максимум температуры воздуха на высоте 2 м над землей.
R - Количество осадков - Количество выпавших осадков за 3 или 6 часов, мм.
SD - Снежный покров - Высота снежного покрова, см.